Location: The Jewett Observatory
(46.7288°N, 117.1525°W)
Time: 18:28:36
(UTC-07:00)

Meteor 1-28 Rocket - Visible Passes

Search period start: 23 August 2016 00:00
Search period end: 02 September 2016 00:00
Orbit: 508 x 525 km, 97.2° (Epoch: 22 August)

Date Brightness Start Highest point End Pass type
(mag) Time Alt. Az. Time Alt. Az. Time Alt. Az.
23 Aug 6.8 05:24:16 10° E 05:26:25 15° ENE 05:28:33 10° NNE visible
24 Aug 7.3 05:11:18 10° ENE 05:12:06 11° ENE 05:12:53 10° NE visible
25 Aug 7.0 21:06:22 10° NW 21:07:32 11° WNW 21:08:41 10° WNW visible
26 Aug 6.7 20:50:56 10° NNW 20:53:13 15° WNW 20:55:29 10° W visible
27 Aug 6.3 20:35:57 10° NNW 20:38:52 21° WNW 20:41:45 10° WSW visible
28 Aug 5.6 20:21:10 10° N 20:24:30 29° WNW 20:27:47 10° SW visible
29 Aug 6.6 05:30:58 10° ESE 05:33:32 17° ENE 05:36:06 10° NNE visible
29 Aug 4.8 20:06:28 10° N 20:10:05 41° WNW 20:13:40 10° SW visible
30 Aug 6.9 05:17:29 10° E 05:19:12 13° ENE 05:20:56 10° NE visible
01 Sep 6.8 20:58:35 10° NW 21:00:19 13° WNW 21:02:01 10° W visible
